Location: ??????? ???
(48.4181°N, 34.4488°E)
Time: 04:15:26
(UTC+00:00)

Daily predictions for brighter satellites

Satellite Brightness Start Highest point End
(mag) Time Altitude Azimuth Time Altitude Azimuth Time Altitude Azimuth
Cosmos 1821 Rocket 4.0 00:08:23 10° N 00:14:44 76° E 00:15:30 67° SE
Cosmos 1697 Rocket 2.8 00:19:51 71° E 00:19:51 71° E 00:25:09 10° NNE
CZ-4B R/B 3.9 00:14:41 10° NNE 00:18:48 59° N 00:18:48 59° N
NOSS 2-2 (C) 4.4 00:18:35 55° NW 00:20:01 85° NE 00:27:40 10° SE
Cosmos 972 Rocket 4.4 00:21:57 55° ENE 00:21:57 55° ENE 00:26:19 10° NNE
Cosmos 1980 Rocket 2.9 00:23:49 42° SE 00:24:39 45° ESE 00:30:01 10° NE
Cosmos 1934 Rocket 4.5 00:20:14 10° N 00:26:11 56° ENE 00:30:54 17° SSE
Cosmos 2263 Rocket 3.4 00:24:29 10° NNW 00:29:51 42° NE 00:35:13 10° ESE
Meteor 1-25 Rocket 4.1 00:26:47 10° NNW 00:32:38 86° W 00:32:38 86° W
X-37B 3.9 00:37:29 10° ESE 00:37:29 10° ESE 00:37:29 10° ESE
Cosmos 1515 Rocket 4.2 00:35:46 54° E 00:35:46 54° E 00:39:57 10° NNE
Gbstr 26 Del rocket 4.5 00:36:04 32° WNW 00:40:18 82° NNE 00:47:54 10° ESE
SL-16 R/B 4.5 00:36:59 10° SE 00:40:51 19° E 00:44:43 10° ENE
Nadezhda 3 Rocket 3.8 00:42:12 67° SSW 00:43:04 82° W 00:49:16 10° N
ADEOS II 2.3 00:39:44 10° N 00:44:28 56° NW 00:44:28 56° NW
Cosmos 1328 Rocket 4.1 00:46:57 50° NNW 00:46:57 50° NNW 00:50:21 10° N
Cosmos 1151 Rocket 3.9 00:49:41 41° NNW 00:49:41 41° NNW 00:52:41 10° N
ARIANE 5 R/B 2.4 00:45:18 10° NNE 00:50:27 84° ESE 00:51:03 69° S
USA 305 3.2 00:51:12 65° ENE 00:51:12 65° ENE 00:54:51 10° ENE
Cosmos 1656 4.2 00:51:02 41° NW 00:51:02 41° NW 00:56:11 10° NNE
Cosmos 1933 Rocket 3.7 00:48:01 10° N 00:51:47 65° N 00:51:47 65° N
IDEFIX/ARIANE 42P 2.7 00:49:08 10° NNE 00:54:26 72° ESE 00:56:03 45° S
USA 306 3.0 00:55:13 71° NE 00:55:13 71° NE 00:59:03 10° ENE
IRS-1D 4.1 00:50:09 10° N 00:54:55 44° WNW 00:54:55 44° WNW
Meteor 1-14 Rocket 4.1 00:50:50 10° N 00:56:30 86° E 01:00:16 21° SSE
CZ-4C R/B 4.1 00:58:58 29° SE 01:00:25 45° ENE 01:03:51 10° N
ASTEX 1 3.4 00:55:33 10° N 01:00:35 86° E 01:01:53 51° S
CZ-2C R/B 4.3 00:56:37 10° NE 01:01:06 29° E 01:05:34 10° SSE
Cosmos 2228 Rocket 3.7 01:02:04 34° SSE 01:03:40 55° E 01:07:59 10° NNE
USA 267 3.2 01:03:55 10° NE 01:10:30 86° NNW 01:13:06 40° WSW
IRS-1C 4.2 01:05:36 10° N 01:10:48 54° WNW 01:11:32 50° W
CZ-2D R/B 3.4 01:07:01 10° NNE 01:11:15 83° WNW 01:11:39 72° SW
Cosmos 1869 Rocket 4.1 01:07:28 10° N 01:11:47 56° ENE 01:16:01 10° SSE
NOSS 3-3 (A) 4.3 01:09:13 30° S 01:11:57 56° ESE 01:18:19 10° NE
SL-4 R/B 4.4 01:10:15 15° SSE 01:12:03 18° SE 01:15:15 10° E
NOSS 3-3 (C) 4.3 01:09:23 30° S 01:12:05 55° ESE 01:18:22 10° NE
CZ-2D R/B 3.9 01:15:45 10° NNW 01:18:48 16° NW 01:18:48 16° NW
Cosmos 1238 Rocket 3.9 01:13:22 10° NNW 01:19:58 69° W 01:25:25 13° S
Cosmos 44 3.0 01:21:10 54° SW 01:22:11 88° ESE 01:26:53 10° NE
SJ 16-02 1.3 01:17:50 10° NNW 01:22:16 83° ENE 01:26:40 10° SSE
Cosmos 2278 3.7 01:20:29 43° SW 01:22:20 67° WNW 01:28:02 10° NNE
USA 307 3.0 01:21:48 56° WNW 01:22:26 65° NNW 01:26:42 10° ENE
Cosmos 1782 3.2 01:23:31 47° WNW 01:23:31 47° WNW 01:27:06 10° N
CZ-2C R/B 2.7 01:20:05 10° NNE 01:23:53 83° ESE 01:24:49 50° S
ATLAS 2AS CENTAUR R/B 3.7 01:18:01 10° NW 01:25:27 50° NE 01:32:18 10° ESE
USA 308 3.0 01:24:51 52° WNW 01:25:39 64° NNW 01:29:53 10° ENE
Resurs 1-4 Rocket 4.0 01:23:16 10° NNW 01:25:55 14° NW 01:25:56 14° NW
Cosmos 990 Rocket 4.2 01:22:09 10° NNW 01:27:21 70° ENE 01:32:33 10° SSE
Meteor 1-4 Rocket 3.6 01:25:24 19° SSE 01:27:29 42° E 01:30:50 10° NNE
Cosmos 389 Rocket 3.0 01:28:34 45° NW 01:28:34 45° NW 01:31:32 10° N
Lacrosse 5 2.2 01:29:27 37° W 01:31:09 55° NNW 01:36:09 10° NE
Cosmos 2369 4.2 01:29:32 34° W 01:31:11 43° NW 01:36:39 10° NNE
H-2A R/B 2.0 01:27:50 10° SSE 01:32:13 81° WSW 01:36:43 10° NNW
USA 276 2.3 01:32:02 61° NNW 01:32:13 63° N 01:35:26 10° E
ATLAS 5 CENTAUR R/B 3.8 01:30:41 12° NW 01:33:02 17° NNW 01:36:18 10° NNE
Cosmos 1339 Rocket 4.4 01:30:54 16° SSW 01:36:06 78° W 01:42:20 10° N
ADEOS Rocket 3.5 01:29:39 10° SSE 01:36:20 66° ENE 01:42:20 10° N
ERBS 2.9 01:38:07 40° S 01:38:51 49° SE 01:42:07 10° ENE
Meteor 1-11 Rocket 4.0 01:33:35 10° N 01:39:25 73° ENE 01:45:05 10° SSE
ALOS 4.3 01:41:16 10° NE 01:45:18 28° E 01:49:19 10° SSE
Landsat 5 3.6 01:40:56 10° S 01:45:23 60° WSW 01:49:50 10° NNW
USA 234 3.3 01:40:19 10° SSE 01:46:40 53° SW 01:53:04 10° WNW
GENESIS II 4.2 01:46:06 32° SSW 01:47:55 83° SE 01:51:59 10° NE
MSX 3.9 01:44:47 10° N 01:50:29 61° WNW 01:54:55 17° SW
Spot 4 Rocket 4.4 01:45:47 10° N 01:50:40 44° WNW 01:53:11 26° WSW
CZ-4B R/B 2.4 01:47:55 10° SE 01:50:57 45° ENE 01:54:05 10° N
Meteor 1-27 Rocket 4.3 01:47:07 10° S 01:52:59 66° E 01:58:51 10° NNE
ERS-2 2.0 01:53:52 10° S 01:57:31 71° WSW 02:01:12 10° NNW
Cosmos 2360 Rocket 3.8 01:53:37 10° SSE 01:58:39 34° ESE 02:03:42 10° NE
Cosmos 1484 Rocket 4.4 01:57:29 10° NNE 02:01:12 37° E 02:04:56 10° SSE
Cosmos 1898 Rocket 3.4 01:56:52 10° NNW 02:02:06 69° WSW 02:07:20 10° SSE
CZ-4C R/B 4.2 01:55:52 10° NW 02:02:09 39° NNE 02:09:27 10° E
Cosmos 1697 Rocket 4.0 02:01:35 18° W 02:04:05 25° NW 02:08:40 10° N
IRIDIUM 104 4.4 01:59:27 10° NNW 02:04:35 56° W 02:09:40 10° SSW
Cosmos 1689 Rocket 4.5 02:03:35 10° SE 02:06:09 27° ENE 02:08:44 10° N
Cosmos 1536 2.8 02:02:13 10° N 02:06:20 89° ENE 02:10:24 10° S
Cosmos 1980 Rocket 2.9 02:05:37 21° WSW 02:08:46 36° NW 02:13:59 10° NNE
SL-8 R/B 4.4 02:07:52 22° W 02:10:09 33° SSW 02:14:25 10° SSE
X-37B 1.5 02:09:45 26° SW 02:10:45 32° SSW 02:13:38 10° SE
Meteor 1-31 Rocket 4.3 02:09:04 10° NNE 02:12:41 39° E 02:16:17 10° SSE
Cosmos 858 Rocket 4.4 02:07:44 10° NNW 02:12:57 77° WSW 02:18:07 10° SSE
deb Chang Zheng 4 4.0 02:09:00 10° NNE 02:13:17 63° ESE 02:17:31 10° S
Cosmos 2263 Rocket 2.6 02:08:34 10° NW 02:13:44 38° WSW 02:18:54 10° S
Cosmos 2322 Rocket 2.3 02:09:31 10° SSW 02:15:11 79° ESE 02:20:55 10° NNE
Cosmos 2173 Rocket 4.0 02:11:35 10° N 02:17:57 88° W 02:24:20 10° S
Cosmos 921 Rocket 3.6 02:16:00 19° WSW 02:18:25 34° WNW 02:22:17 10° N
USA 32 4.0 02:14:11 10° NNW 02:19:21 60° W 02:24:31 10° S
Cosmos 1844 Rocket 3.2 02:14:22 10° NNW 02:20:00 63° ENE 02:25:36 10° SE
ADEOS II 4.1 02:22:11 10° NW 02:23:32 11° NW 02:24:54 10° WNW
SL-16 R/B 2.2 02:18:37 10° SSW 02:24:17 77° WNW 02:30:00 10° NNE
Cosmos 1707 Rocket 3.6 02:22:37 10° SSW 02:26:52 56° WNW 02:31:10 10° N
Cosmos 1937 Rocket 3.5 02:23:01 10° NNW 02:28:04 57° WSW 02:33:04 10° S
Cosmos 1812 3.8 02:26:12 15° WSW 02:28:37 26° WNW 02:31:55 10° NNW
ARIANE 5 R/B 4.1 02:25:41 10° NNW 02:28:53 17° NW 02:31:22 12° W
CZ-3B R/B 3.9 02:25:23 11° WNW 02:29:03 50° N 02:43:19 10° E
ADEOS 3.6 02:24:12 10° NNE 02:29:28 89° ESE 02:34:41 10° SSW
USA 305 3.8 02:27:21 13° WNW 02:30:57 41° N 02:34:59 10° ENE
Cosmos 1666 3.4 02:29:24 10° NNW 02:32:49 31° W 02:36:12 10° SSW
IDEFIX/ARIANE 42P 4.0 02:29:42 10° NNW 02:33:29 20° WNW 02:36:51 12° W
USA 306 3.8 02:31:23 11° WNW 02:35:09 40° N 02:39:12 10° ENE
Cosmos 2061 Rocket 4.2 02:30:17 10° N 02:36:46 87° E 02:43:13 10° S
Cosmos 1814 Rocket 4.4 02:32:04 10° S 02:37:13 67° ESE 02:42:28 10° NNE
Cosmos 841 Rocket 3.6 02:33:51 10° SSW 02:39:05 86° ESE 02:44:23 10° NNE
CZ-2C R/B 2.9 02:34:36 10° N 02:39:26 44° WNW 02:44:19 10° SW
Cosmos 1733 Rocket 3.2 02:38:28 10° NNW 02:42:43 51° W 02:46:54 10° S
Cosmos 44 Rocket 3.7 02:40:38 10° SSW 02:45:19 66° ESE 02:50:09 10° NE
SKYMED 2 3.8 02:42:12 10° SSE 02:46:32 80° ENE 02:50:55 10° NNW
SAR-Lupe-4 3.9 02:43:21 10° S 02:46:46 41° W 02:50:13 10° NNW
Cosmos 1763 Rocket 3.9 02:42:53 10° SW 02:48:01 47° WNW 02:53:09 10° NNE
Cosmos 2016 Rocket 3.9 02:42:29 10° NNW 02:48:38 78° W 02:54:42 10° S
Cosmos 2219 Rocket 4.2 02:44:18 10° SSE 02:49:15 32° ESE 02:54:15 10° NE
SL-4 R/B 2.7 02:46:31 10° SW 02:51:07 67° SSE 02:55:55 10° ENE
NOSS 3-4 (A) 4.0 02:45:46 10° NW 02:52:39 61° WSW 03:00:16 10° SSE
NOSS 3-4 (C) 3.9 02:45:52 10° NW 02:52:45 61° WSW 03:00:23 10° SSE
USA 267 3.9 02:46:59 10° ENE 02:53:11 47° NNW 02:59:23 10° W
Meteor 2-20 4.5 02:52:24 10° SSW 02:58:31 71° WNW 03:04:39 10° N
Cosmos 1570 Rocket 4.1 02:54:45 10° SSW 03:00:03 68° WNW 03:05:25 10° NNE
SJ 16-02 3.2 02:58:40 10° WNW 03:00:09 12° W 03:01:37 10° WSW
Cosmos 2233 Rocket 4.3 02:54:17 10° N 03:00:26 73° E 03:06:33 10° SSE
SJ-12 4.1 02:56:26 10° NNE 03:00:35 84° E 03:04:43 10° SSW
Cosmos 1862 Rocket 3.8 02:56:46 10° SSW 03:01:03 50° WNW 03:05:18 10° N
